Weather History for KCKV - September, 2012

Change the Weather History Date:

Wednesday, September 19, 2012

  Actual Average Record
Temperature  
Mean Temperature 58 °F -  
Max Temperature 72 °F - 100 °F (1954)
Min Temperature 43 °F - 43 °F (1981)
Degree Days  
Heating Degree Days 7    
Month to date heating degree days 13  
Since 1 July heating degree days 13  
Cooling Degree Days 0    
Month to date cooling degree days 140  
Growing Degree Days 7 (Base 50)    
Moisture  
Dew Point 44 °F    
Average Humidity 67    
Maximum Humidity 100    
Minimum Humidity 33    
Precipitation  
Precipitation 0.00 in - 0.88 in (1977)
Month to date precipitation 3.61  
Sea Level Pressure  
Sea Level Pressure 30.12 in    
Wind  
Wind Speed 1 mph (East)    
Max Wind Speed 9 mph    
Max Gust Speed 14 mph    
Visibility 10 miles    
Events      
T = Trace of Precipitation, MM = Missing Value Source: NWS Daily Summary

Daily Weather History Graph

Daily Weather History Graph

Search for Another Location

Airport or City:

Trip Planner

Search our weather history database for the weather conditions in past years. The results will help you decide how hot, cold, wet, or windy it might be!

Date:

Astronomy

Sep. 19, 2012 Rise Set
Actual Time 6:35 AM CDT 6:50 PM CDT
Civil Twilight 6:09 AM CDT 7:16 PM CDT
Nautical Twilight 5:39 AM CDT 7:46 PM CDT
Astronomical Twilight 5:08 AM CDT 8:16 PM CDT
Moon 10:37 AM CDT (9/19) 9:08 PM CDT (9/19)
Length of Visible Light 13h 06m
Length of Day
12h 14m
Waxing Crescent, 17% of the Moon is Illuminated
Sep 19
Waxing Crescent
Sep 22
First Quarter
Sep 29
Full
Oct 8
Last Quarter
Oct 15
New

Hourly Weather History & Observations

Time (CDT) Temp. Dew Point Humidity Pressure Visibility Wind Dir Wind Speed Gust Speed Precip Events Conditions
2:52 AM 48.0 °F 45.0 °F 89% 30.07 in 10.0 mi Calm Calm - N/A   Clear
3:52 AM 46.0 °F 44.1 °F 93% 30.09 in 10.0 mi Calm Calm - N/A   Clear
4:52 AM 46.0 °F 43.0 °F 89% 30.11 in 10.0 mi Calm Calm - N/A   Clear
6:52 AM 43.0 °F 42.1 °F 97% 30.15 in - Calm Calm - N/A   Clear
7:52 AM 50.0 °F 45.0 °F 83% 30.16 in - Calm Calm - N/A   Clear
8:52 AM 57.0 °F 46.0 °F 67% 30.17 in 10.0 mi Calm Calm - N/A   Clear
9:52 AM 61.0 °F 45.0 °F 56% 30.19 in 10.0 mi ESE 6.9 mph - N/A   Clear
10:52 AM 64.9 °F 41.0 °F 42% 30.19 in 10.0 mi East 5.8 mph - N/A   Clear
11:52 AM 66.0 °F 39.0 °F 37% 30.18 in 10.0 mi Calm Calm - N/A   Clear
12:52 PM 66.9 °F 39.9 °F 37% 30.17 in 10.0 mi North 3.5 mph - N/A   Clear
1:52 PM 70.0 °F 42.1 °F 36% 30.14 in 10.0 mi Variable 4.6 mph - N/A   Clear
2:52 PM 70.0 °F 39.9 °F 33% 30.12 in 10.0 mi Calm Calm - N/A   Clear
3:52 PM 70.0 °F 41.0 °F 35% 30.10 in 10.0 mi Calm Calm - N/A   Clear
4:52 PM 71.1 °F 41.0 °F 34% 30.09 in 10.0 mi Calm Calm - N/A   Clear
5:52 PM 69.1 °F 41.0 °F 36% 30.09 in 10.0 mi Calm Calm - N/A   Clear
6:52 PM 64.9 °F 45.0 °F 48% 30.09 in 10.0 mi Calm Calm - N/A   Clear
8:52 PM 55.9 °F 48.0 °F 75% 30.10 in 10.0 mi Calm Calm - N/A   Clear
9:52 PM 54.0 °F 48.0 °F 80% 30.08 in 10.0 mi Calm Calm - N/A   Clear
10:52 PM 52.0 °F 48.0 °F 86% 30.09 in 10.0 mi Calm Calm - N/A   Clear
11:52 PM 51.1 °F 48.0 °F 89% 30.09 in 10.0 mi Calm Calm - N/A   Clear